Location: Eastchurch
(51.4000°N, 0.8667°E)
Time: 00:03:16
(UTC+00:00)

SPOT 1/Viking Rocket - Pass Details

Date: 19 January 2026
Orbit: 772 x 789 km, 98.2° (Epoch: 18 February)

Event Time Altitude Azimuth Distance (km) Brightness Sun altitude
Rises 18:10:47 0° 173° (S) 3,253 6.8 -16.2°
Reaches altitude 10° 18:13:07 10° 177° (S) 2,327 6.1 -16.5°
Maximum altitude 18:18:12 63° 258° (WSW) 868 4.0 -17.3°
Drops below altitude 10° 18:23:19 10° 340° (NNW) 2,335 6.1 -18.1°
Sets 18:25:40 0° 344° (NNW) 3,265 6.8 -18.5°
